This is the latest recevied weather packets stored in our database for station/object KI6SYE. If no packets are shown the sender has not sent any weather packets the latest 10 day(s).
| Time | Temp. | Humidity | Pressure | Rain* | Wind** | Luminosity | Snow |
|---|---|---|---|---|---|---|---|
| 1777489470 | 17.78° C | 77% | 1016.2 hPa | 0 mm | - | 781 W/m² | - |
| 1777489167 | 18.33° C | 77% | 1016.3 hPa | 0 mm | - | 777 W/m² | - |
| 1777488864 | 18.33° C | 77% | 1016.3 hPa | 0 mm | - | 774 W/m² | - |
| 1777488561 | 18.33° C | 78% | 1016.6 hPa | 0 mm | - | 767 W/m² | - |
| 1777488259 | 18.33° C | 76% | 1016.6 hPa | 0 mm | - | 766 W/m² | - |
| 1777487957 | 18.89° C | 76% | 1016.6 hPa | 0 mm | - | 760 W/m² | - |
| 1777487654 | 18.33° C | 75% | 1016.5 hPa | 0 mm | - | 752 W/m² | - |
| 1777487351 | 18.33° C | 78% | 1016.8 hPa | 0 mm | - | 749 W/m² | - |
| 1777487049 | 18.33° C | 77% | 1016.7 hPa | 0 mm | - | 743 W/m² | - |
| 1777486744 | 17.78° C | 78% | 1016.6 hPa | 0 mm | - | 735 W/m² | - |
| 1777486443 | 18.33° C | 75% | 1016.7 hPa | 0 mm | - | 727 W/m² | - |
| 1777486139 | 18.33° C | 77% | 1016.5 hPa | 0 mm | - | 717 W/m² | - |
| 1777485836 | 17.22° C | 77% | 1016.8 hPa | 0 mm | - | 711 W/m² | - |
| 1777485532 | 17.22° C | 78% | 1016.7 hPa | 0 mm | - | 704 W/m² | - |
| 1777485228 | 17.78° C | 77% | 1016.8 hPa | 0 mm | - | 692 W/m² | - |
| 1777484924 | 18.33° C | 76% | 1016.8 hPa | 0 mm | - | 684 W/m² | - |
| 1777484622 | 18.33° C | 76% | 1016.5 hPa | 0 mm | - | 676 W/m² | - |
| 1777484318 | 17.78° C | 77% | 1016.6 hPa | 0 mm | - | 666 W/m² | - |
| 1777484014 | 17.22° C | 79% | 1016.6 hPa | 0 mm | - | 657 W/m² | - |
| 1777483711 | 17.78° C | 78% | 1016.7 hPa | 0 mm | - | 647 W/m² | - |
| 1777483407 | 17.78° C | 78% | 1016.7 hPa | 0 mm | - | 638 W/m² | - |
| 1777483102 | 17.22° C | 78% | 1017.1 hPa | 0 mm | - | 629 W/m² | - |
| 1777482800 | 17.22° C | 78% | 1016.9 hPa | 0 mm | - | 616 W/m² | - |
| 1777482495 | 17.78° C | 77% | 1016.8 hPa | 0 mm | - | 603 W/m² | - |
| 1777482192 | 17.78° C | 78% | 1017 hPa | 0 mm | - | 587 W/m² | - |
* Rain latest hour (hover to see other rain measurements)
** Current wind speed in m/s (hover to see current wind gust speed)